Time,TemperatureF,DewpointF,PressureIn,WindDirection,WindDirectionDegrees,WindSpeedMPH,WindSpeedGustMPH,Humidity,HourlyPrecipIn,Conditions,Clouds,dailyrainin,SoftwareType,DateUTC
2013-06-13 00:08:00,82.3,77.0,30.00,NNW,344,3.0,-999.0,84,-99.99,,,0.00,weatherlink.com 1.10,2013-06-13 04:08:00,
2013-06-13 00:23:00,82.1,77.0,30.00,NNW,344,2.0,-999.0,84,-99.99,,,0.00,weatherlink.com 1.10,2013-06-13 04:23:00,
2013-06-13 00:38:00,81.9,77.0,29.99,NNW,344,3.0,-999.0,84,-99.99,,,0.00,weatherlink.com 1.10,2013-06-13 04:38:00,
2013-06-13 00:53:00,81.8,77.0,29.99,NNW,344,0.0,-999.0,85,-99.99,,,0.00,weatherlink.com 1.10,2013-06-13 04:53:00,
2013-06-13 01:08:00,81.6,77.0,29.98,NNW,344,2.0,-999.0,85,-99.99,,,0.00,weatherlink.com 1.10,2013-06-13 05:08:00,
2013-06-13 01:23:00,81.6,77.0,29.98,NNW,344,1.0,-999.0,86,-99.99,,,0.00,weatherlink.com 1.10,2013-06-13 05:23:00,
2013-06-13 01:38:00,81.4,77.0,29.97,NNW,344,0.0,-999.0,86,-99.99,,,0.00,weatherlink.com 1.10,2013-06-13 05:38:00,
2013-06-13 01:53:00,81.3,77.0,29.97,NNW,344,0.0,-999.0,86,-99.99,,,0.00,weatherlink.com 1.10,2013-06-13 05:53:00,
2013-06-13 02:08:00,81.2,77.0,29.97,NNW,344,0.0,-999.0,86,-99.99,,,0.00,weatherlink.com 1.10,2013-06-13 06:08:00,
2013-06-13 02:23:00,81.1,77.0,29.96,NNW,344,0.0,-999.0,86,-99.99,,,0.00,weatherlink.com 1.10,2013-06-13 06:23:00,
2013-06-13 02:38:00,80.9,76.0,29.96,NNW,344,0.0,-999.0,86,-99.99,,,0.00,weatherlink.com 1.10,2013-06-13 06:38:00,
2013-06-13 02:53:00,80.9,77.0,29.96,NNW,344,0.0,-999.0,87,-99.99,,,0.00,weatherlink.com 1.10,2013-06-13 06:53:00,
2013-06-13 03:08:00,80.7,77.0,29.96,NNW,344,0.0,-999.0,87,-99.99,,,0.00,weatherlink.com 1.10,2013-06-13 07:08:00,
2013-06-13 03:23:00,80.7,77.0,29.95,NNW,344,0.0,-999.0,88,-99.99,,,0.00,weatherlink.com 1.10,2013-06-13 07:23:00,
2013-06-13 03:38:00,80.5,77.0,29.95,NNW,344,1.0,-999.0,88,-99.99,,,0.00,weatherlink.com 1.10,2013-06-13 07:38:00,
2013-06-13 03:53:00,80.3,77.0,29.95,NNW,344,0.0,-999.0,89,-99.99,,,0.00,weatherlink.com 1.10,2013-06-13 07:53:00,
2013-06-13 04:08:00,80.2,77.0,29.95,NNW,344,0.0,-999.0,89,-99.99,,,0.00,weatherlink.com 1.10,2013-06-13 08:08:00,
2013-06-13 04:23:00,80.1,76.0,29.95,NNW,344,0.0,-999.0,88,-99.99,,,0.00,weatherlink.com 1.10,2013-06-13 08:23:00,
2013-06-13 04:38:00,80.1,76.0,29.94,NNW,344,0.0,-999.0,88,-99.99,,,0.00,weatherlink.com 1.10,2013-06-13 08:38:00,
2013-06-13 04:53:00,80.1,76.0,29.94,NNW,344,1.0,-999.0,88,-99.99,,,0.00,weatherlink.com 1.10,2013-06-13 08:53:00,
2013-06-13 05:08:00,80.0,77.0,29.95,NNW,344,0.0,-999.0,89,-99.99,,,0.00,weatherlink.com 1.10,2013-06-13 09:08:00,
2013-06-13 05:23:00,80.2,76.0,29.95,NNW,344,0.0,-999.0,88,-99.99,,,0.00,weatherlink.com 1.10,2013-06-13 09:23:00,
2013-06-13 05:38:00,80.2,76.0,29.94,NNW,344,0.0,-999.0,88,-99.99,,,0.00,weatherlink.com 1.10,2013-06-13 09:38:00,
2013-06-13 05:53:00,80.1,76.0,29.94,NNW,344,0.0,-999.0,88,-99.99,,,0.00,weatherlink.com 1.10,2013-06-13 09:53:00,
2013-06-13 06:08:00,80.0,76.0,29.94,NNW,344,0.0,-999.0,88,-99.99,,,0.00,weatherlink.com 1.10,2013-06-13 10:08:00,
2013-06-13 06:23:00,80.0,76.0,29.95,NNW,344,0.0,-999.0,88,-99.99,,,0.00,weatherlink.com 1.10,2013-06-13 10:23:00,
2013-06-13 06:38:00,80.0,76.0,29.95,NNW,344,0.0,-999.0,88,-99.99,,,0.00,weatherlink.com 1.10,2013-06-13 10:38:00,
2013-06-13 06:53:00,80.1,76.0,29.96,NNW,342,0.0,-999.0,88,-99.99,,,0.00,weatherlink.com 1.10,2013-06-13 10:53:00,
2013-06-13 07:08:00,80.5,77.0,29.96,NNW,344,0.0,-999.0,88,-99.99,,,0.00,weatherlink.com 1.10,2013-06-13 11:08:00,
2013-06-13 07:23:00,81.2,77.0,29.97,NNW,344,0.0,-999.0,86,-99.99,,,0.00,weatherlink.com 1.10,2013-06-13 11:23:00,
2013-06-13 07:38:00,81.4,77.0,29.97,NNW,344,0.0,-999.0,85,-99.99,,,0.01,weatherlink.com 1.10,2013-06-13 11:38:00,
2013-06-13 07:53:00,81.5,76.0,29.98,NNW,344,0.0,-999.0,84,-99.99,,,0.01,weatherlink.com 1.10,2013-06-13 11:53:00,
2013-06-13 08:08:00,81.6,77.0,29.98,NW,318,0.0,-999.0,85,-99.99,,,0.01,weatherlink.com 1.10,2013-06-13 12:08:00,
2013-06-13 08:23:00,82.6,77.0,29.99,NW,318,0.0,-999.0,83,-99.99,,,0.01,weatherlink.com 1.10,2013-06-13 12:23:00,
2013-06-13 08:38:00,82.1,76.0,30.00,NW,306,0.0,-999.0,82,-99.99,,,0.01,weatherlink.com 1.10,2013-06-13 12:38:00,
2013-06-13 08:53:00,82.9,77.0,30.00,WSW,251,3.0,-999.0,81,-99.99,,,0.01,weatherlink.com 1.10,2013-06-13 12:53:00,
2013-06-13 09:08:00,82.4,76.0,30.00,WNW,294,3.0,-999.0,82,-99.99,,,0.01,weatherlink.com 1.10,2013-06-13 13:08:00,
2013-06-13 09:23:00,83.7,77.0,30.00,NW,307,2.0,-999.0,80,-99.99,,,0.01,weatherlink.com 1.10,2013-06-13 13:23:00,
2013-06-13 09:38:00,83.6,77.0,30.00,NW,309,3.0,-999.0,79,-99.99,,,0.01,weatherlink.com 1.10,2013-06-13 13:38:00,
2013-06-13 09:53:00,84.4,77.0,30.00,WNW,294,1.0,-999.0,79,-99.99,,,0.01,weatherlink.com 1.10,2013-06-13 13:53:00,
2013-06-13 10:08:00,84.3,77.0,30.00,West,278,2.0,-999.0,79,-99.99,,,0.01,weatherlink.com 1.10,2013-06-13 14:08:00,
2013-06-13 10:23:00,84.9,77.0,30.00,West,275,1.0,-999.0,77,-99.99,,,0.01,weatherlink.com 1.10,2013-06-13 14:23:00,
2013-06-13 10:38:00,85.5,77.0,30.00,NW,314,2.0,-999.0,76,-99.99,,,0.01,weatherlink.com 1.10,2013-06-13 14:38:00,
2013-06-13 10:53:00,85.0,77.0,30.00,NW,317,2.0,-999.0,76,-99.99,,,0.01,weatherlink.com 1.10,2013-06-13 14:53:00,
2013-06-13 11:08:00,85.6,77.0,30.00,West,259,1.0,-999.0,75,-99.99,,,0.01,weatherlink.com 1.10,2013-06-13 15:08:00,
2013-06-13 11:23:00,85.5,77.0,30.00,NW,312,6.0,-999.0,75,-99.99,,,0.01,weatherlink.com 1.10,2013-06-13 15:23:00,
2013-06-13 11:38:00,85.4,77.0,30.00,NW,314,4.0,-999.0,76,-99.99,,,0.01,weatherlink.com 1.10,2013-06-13 15:38:00,
2013-06-13 11:53:00,85.9,77.0,30.00,NNW,327,1.0,-999.0,75,-99.99,,,0.01,weatherlink.com 1.10,2013-06-13 15:53:00,
2013-06-13 12:08:00,86.1,77.0,30.00,NNW,336,2.0,-999.0,75,-99.99,,,0.01,weatherlink.com 1.10,2013-06-13 16:08:00,
2013-06-13 12:23:00,86.3,77.0,30.00,West,267,2.0,-999.0,74,-99.99,,,0.01,weatherlink.com 1.10,2013-06-13 16:23:00,
2013-06-13 12:38:00,86.4,77.0,30.00,SW,228,2.0,-999.0,73,-99.99,,,0.01,weatherlink.com 1.10,2013-06-13 16:38:00,
2013-06-13 12:53:00,86.4,78.0,30.00,WSW,239,0.0,-999.0,75,-99.99,,,0.01,weatherlink.com 1.10,2013-06-13 16:53:00,
2013-06-13 13:08:00,86.4,78.0,29.99,WSW,252,4.0,-999.0,75,-99.99,,,0.01,weatherlink.com 1.10,2013-06-13 17:08:00,
2013-06-13 13:23:00,86.2,77.0,29.99,West,275,2.0,-999.0,74,-99.99,,,0.01,weatherlink.com 1.10,2013-06-13 17:23:00,
2013-06-13 13:38:00,86.2,77.0,29.98,WNW,297,3.0,-999.0,73,-99.99,,,0.01,weatherlink.com 1.10,2013-06-13 17:38:00,
2013-06-13 13:53:00,86.0,77.0,29.98,NW,322,3.0,-999.0,74,-99.99,,,0.01,weatherlink.com 1.10,2013-06-13 17:53:00,
2013-06-13 14:08:00,86.5,77.0,29.97,WNW,286,2.0,-999.0,74,-99.99,,,0.01,weatherlink.com 1.10,2013-06-13 18:08:00,
2013-06-13 14:23:00,86.1,77.0,29.96,NW,310,2.0,-999.0,74,-99.99,,,0.01,weatherlink.com 1.10,2013-06-13 18:23:00,
2013-06-13 14:38:00,86.3,78.0,29.96,SW,234,0.0,-999.0,75,-99.99,,,0.01,weatherlink.com 1.10,2013-06-13 18:38:00,
2013-06-13 14:53:00,86.3,76.0,29.95,West,264,0.0,-999.0,72,-99.99,,,0.01,weatherlink.com 1.10,2013-06-13 18:53:00,
2013-06-13 15:08:00,87.1,77.0,29.94,NW,319,4.0,-999.0,71,-99.99,,,0.01,weatherlink.com 1.10,2013-06-13 19:08:00,
2013-06-13 15:23:00,86.5,77.0,29.94,NW,313,4.0,-999.0,72,-99.99,,,0.01,weatherlink.com 1.10,2013-06-13 19:23:00,
2013-06-13 15:38:00,86.5,76.0,29.93,NW,322,9.0,-999.0,71,-99.99,,,0.01,weatherlink.com 1.10,2013-06-13 19:38:00,
2013-06-13 15:53:00,86.7,77.0,29.93,WSW,254,2.0,-999.0,73,-99.99,,,0.01,weatherlink.com 1.10,2013-06-13 19:53:00,
2013-06-13 16:08:00,86.7,77.0,29.93,NW,310,0.0,-999.0,73,-99.99,,,0.01,weatherlink.com 1.10,2013-06-13 20:08:00,
2013-06-13 16:23:00,86.9,76.0,29.93,WSW,250,4.0,-999.0,71,-99.99,,,0.01,weatherlink.com 1.10,2013-06-13 20:23:00,
2013-06-13 16:38:00,86.9,76.0,29.93,NW,323,0.0,-999.0,70,-99.99,,,0.01,weatherlink.com 1.10,2013-06-13 20:38:00,
2013-06-13 16:53:00,87.5,77.0,29.92,West,267,0.0,-999.0,70,-99.99,,,0.01,weatherlink.com 1.10,2013-06-13 20:53:00,
2013-06-13 17:08:00,87.3,76.0,29.92,West,272,5.0,-999.0,70,-99.99,,,0.01,weatherlink.com 1.10,2013-06-13 21:08:00,
2013-06-13 17:23:00,86.9,76.0,29.91,WSW,253,1.0,-999.0,71,-99.99,,,0.01,weatherlink.com 1.10,2013-06-13 21:23:00,
2013-06-13 17:38:00,86.7,77.0,29.91,West,266,0.0,-999.0,72,-99.99,,,0.01,weatherlink.com 1.10,2013-06-13 21:38:00,
2013-06-13 17:53:00,87.0,77.0,29.91,WNW,303,5.0,-999.0,72,-99.99,,,0.01,weatherlink.com 1.10,2013-06-13 21:53:00,
2013-06-13 18:08:00,86.7,77.0,29.90,West,279,4.0,-999.0,72,-99.99,,,0.01,weatherlink.com 1.10,2013-06-13 22:08:00,
2013-06-13 18:23:00,86.6,76.0,29.90,NNW,330,1.0,-999.0,71,-99.99,,,0.01,weatherlink.com 1.10,2013-06-13 22:23:00,
2013-06-13 18:38:00,85.7,77.0,29.90,West,279,2.0,-999.0,74,-99.99,,,0.01,weatherlink.com 1.10,2013-06-13 22:38:00,
2013-06-13 18:53:00,85.2,77.0,29.90,WNW,284,1.0,-999.0,75,-99.99,,,0.01,weatherlink.com 1.10,2013-06-13 22:53:00,
2013-06-13 19:08:00,84.5,76.0,29.89,WSW,257,1.0,-999.0,76,-99.99,,,0.01,weatherlink.com 1.10,2013-06-13 23:08:00,
2013-06-13 19:23:00,84.3,76.0,29.89,SW,220,0.0,-999.0,77,-99.99,,,0.01,weatherlink.com 1.10,2013-06-13 23:23:00,
2013-06-13 19:38:00,83.9,76.0,29.88,West,266,2.0,-999.0,78,-99.99,,,0.01,weatherlink.com 1.10,2013-06-13 23:38:00,
2013-06-13 19:53:00,83.3,76.0,29.88,WNW,292,1.0,-999.0,79,-99.99,,,0.01,weatherlink.com 1.10,2013-06-13 23:53:00,
2013-06-13 20:08:00,82.9,76.0,29.87,West,272,0.0,-999.0,80,-99.99,,,0.01,weatherlink.com 1.10,2013-06-14 00:08:00,
2013-06-13 20:23:00,82.6,76.0,29.88,WNW,301,1.0,-999.0,81,-99.99,,,0.01,weatherlink.com 1.10,2013-06-14 00:23:00,
2013-06-13 20:38:00,82.2,76.0,29.88,West,279,1.0,-999.0,82,-99.99,,,0.01,weatherlink.com 1.10,2013-06-14 00:38:00,
2013-06-13 20:53:00,82.0,76.0,29.88,WSW,256,0.0,-999.0,82,-99.99,,,0.01,weatherlink.com 1.10,2013-06-14 00:53:00,
2013-06-13 21:08:00,81.9,76.0,29.88,West,261,0.0,-999.0,81,-99.99,,,0.01,weatherlink.com 1.10,2013-06-14 01:08:00,
2013-06-13 21:23:00,81.8,76.0,29.88,West,271,4.0,-999.0,82,-99.99,,,0.01,weatherlink.com 1.10,2013-06-14 01:23:00,
2013-06-13 21:38:00,81.6,76.0,29.89,SW,216,0.0,-999.0,82,-99.99,,,0.01,weatherlink.com 1.10,2013-06-14 01:38:00,
2013-06-13 21:53:00,81.5,76.0,29.88,WSW,250,0.0,-999.0,82,-99.99,,,0.01,weatherlink.com 1.10,2013-06-14 01:53:00,
2013-06-13 22:08:00,81.4,76.0,29.89,WSW,252,2.0,-999.0,83,-99.99,,,0.01,weatherlink.com 1.10,2013-06-14 02:08:00,
2013-06-13 22:23:00,81.4,76.0,29.88,WSW,250,0.0,-999.0,83,-99.99,,,0.01,weatherlink.com 1.10,2013-06-14 02:23:00,
2013-06-13 22:38:00,81.3,76.0,29.90,SW,236,0.0,-999.0,83,-99.99,,,0.01,weatherlink.com 1.10,2013-06-14 02:38:00,
2013-06-13 22:53:00,81.3,76.0,29.90,West,265,0.0,-999.0,83,-99.99,,,0.01,weatherlink.com 1.10,2013-06-14 02:53:00,
2013-06-13 23:08:00,81.3,76.0,29.91,WSW,250,0.0,-999.0,83,-99.99,,,0.01,weatherlink.com 1.10,2013-06-14 03:08:00,
2013-06-13 23:23:00,81.3,76.0,29.90,West,273,0.0,-999.0,83,-99.99,,,0.01,weatherlink.com 1.10,2013-06-14 03:23:00,
2013-06-13 23:38:00,81.2,76.0,29.90,SW,227,0.0,-999.0,83,-99.99,,,0.01,weatherlink.com 1.10,2013-06-14 03:38:00,
2013-06-13 23:53:00,81.2,76.0,29.90,West,264,1.0,-999.0,84,-99.99,,,0.01,weatherlink.com 1.10,2013-06-14 03:53:00,